Other Public Products
Issued by NWS Grand Forks, ND

Home | Current Version | Previous Version | Text Only | Print | Product List | Glossary Off
Versions: 1 2 3 4 5 6 7 8 9 10 11 12 13 14 15 16 17 18 19 20 21 22 23 24 25 26 27 28 29 30 31 32 33 34 35 36 37 38 39 40 41 42 43 44 45 46 47 48 49 50

000
FPUS83 KFGF 010631
OPUFGF
PRAIRIE TO PINES WEATHER ROUNDUP
NATIONAL WEATHER SERVICE EASTERN NORTH DAKOTA/GRAND FORKS ND
100 AM CDT SAT OCT 01 2016

 **SATELLITE DATA USED TO AUGMENT SKY COVER AT AUTOMATED STATIONS**
 *****  WEATHER ACROSS EASTERN NORTH DAKOTA  *****

CITY           SKY/WX    TMP DP  RH WIND       PRES   REMARKS
GRAND FORKS    FAIR      56  49  77 SE7       30.17S
6HR MIN TEMP:  56; 6HR MAX TEMP:  66;

GRAND FORKS AF FAIR      54  50  85 S6        30.17S
GRAND CITY NWS   N/A     54 N/A N/A SE7         N/A
BUXTON           N/A     60  59  97 SE8         N/A
DEVILS LAKE    FAIR      58  49  72 S12       30.14S
6HR MIN TEMP:  58; 6HR MAX TEMP:  62;

FARGO          FAIR      57  48  72 SE10      30.17S
6HR MIN TEMP:  57; 6HR MAX TEMP:  66;

WAHPETON ARPT  FAIR      52  45  76 SE7       30.19S
$$

 *****  WEATHER ACROSS CENTRAL AND WESTERN NORTH DAKOTA  *****

CITY           SKY/WX    TMP DP  RH WIND       PRES   REMARKS
JAMESTOWN      FAIR      56  48  74 SE10      30.14R
6HR MIN TEMP:  56; 6HR MAX TEMP:  62;

BISMARCK       PTCLDY    60  46  59 SE8       30.06F
6HR MIN TEMP:  60; 6HR MAX TEMP:  68;

MINOT          FAIR      54  47  77 SE8       30.04S
6HR MIN TEMP:  54; 6HR MAX TEMP:  64;

MINOT AFB      FAIR      51  47  85 SE9       30.04S
6HR MIN TEMP:  51; 6HR MAX TEMP:  63;

GARRISON         N/A     56  47  71 SE8       30.04S
6HR MIN TEMP:  54; 6HR MAX TEMP:  64;

WILLISTON      CLEAR     53  48  83 NW3       29.99R
6HR MIN TEMP:  53; 6HR MAX TEMP:  62; 6HR PCP: TRACE;

DICKINSON      CLEAR     50  44  80 SE10      29.99S
6HR MIN TEMP:  50; 6HR MAX TEMP:  65;

HETTINGER      CLEAR     53  45  74 E7        30.02S
6HR MIN TEMP:  53; 6HR MAX TEMP:  68;

$$

 *****  OTHER OBSERVATIONS NORTHEAST NORTH DAKOTA  *****

CITY           SKY/WX    TMP DP  RH WIND       PRES   REMARKS
WALHALLA       FAIR      57  54  88 S9        30.15S
LANGDON        FAIR      59  50  72 S14       30.15S
CAVALIER       FAIR      57  50  77 S8        30.17R
GRAFTON        FAIR      55  52  88 SE7       30.19R
CANDO          FAIR      55  50  82 SE8       30.15S
FORT TOTTEN      N/A     58  48  68 S10       29.95S
ROLLA            N/A     55  48  76 S10       30.13S
RUGBY          FAIR      55  50  82 SE10      30.09F
 ***** THE ABOVE OBSERVATIONS ARE NON NWS ARE NOT QUALITY
        CONTROLLED AND MAY MIS-REPORT RAIN FOR SNOW...
$$

 *****  OTHER OBSERVATIONS SOUTHEAST NORTH DAKOTA *****

CITY           SKY/WX    TMP DP  RH WIND       PRES   REMARKS
COOPERSTOWN    FAIR      57  48  72 SE10      30.16S
VALLEY CITY    MOCLDY    55  50  82 SE7       30.18R
OAKES          NOT AVBL
GWINNER        FAIR      54  48  82 SE10      30.16S
SHEYENNE NWR     N/A     49  46  88 SE6       29.95S
BUFFALO          N/A     53  46  78 SE9         N/A
WYNDMERE         N/A     50  48  93 SE3         N/A
 ***** THE ABOVE OBSERVATIONS ARE NON NWS ARE NOT QUALITY
       CONTROLLED AND MAY MIS-REPORT RAIN FOR SNOW...
$$

  *****  WEATHER ACROSS NORTHERN MINNESOTA  *****

CITY           SKY/WX    TMP DP  RH WIND       PRES   REMARKS
FLAG ISLAND    FAIR      55  52  88 SE8       30.23S
WARROAD        FAIR      52  48  87 SE5       30.24S
ROSEAU         FAIR      55  48  76 SE5       30.23R
HALLOCK        FAIR      57  52  82 SE9       30.18S
THF RVR FALLS  FAIR      53  50  89 E7        30.22S
6HR MIN TEMP:  53; 6HR MAX TEMP:  61;

HALSTAD          N/A     49  46  89 SE7         N/A
FOSSTON        FAIR      52  46  82 SE7       30.21S
BAUDETTE       FAIR      49  47  93 SE8       30.25F
6HR MIN TEMP:  49; 6HR MAX TEMP:  56;

WASKISH        FAIR      45  43  93 E3        30.24F FOG
CROOKSTON      FAIR      55  50  82 SE7       30.20S
$$
  *****  WEATHER ACROSS CENTRAL AND WEST MINNESOTA  *****

CITY           SKY/WX    TMP DP  RH WIND       PRES   REMARKS
BEMIDJI        FAIR      49  46  92 E7        30.23S
PARK RAPIDS    FAIR      50  45  83 CALM      30.23S
6HR MIN TEMP:  50; 6HR MAX TEMP:  62;

WADENA         FAIR      46  46 100 E5        30.22S
DETROIT LAKES  FAIR      52  46  82 SE6       30.23R
MOORHEAD       FAIR      54  48  82 SE7       30.19S
FERGUS FALLS   FAIR      54  46  76 E7        30.22S
ELBOW LAKE     FAIR      52  49  90 SE8       30.20S
MORRIS MN      FAIR      48  46  93 E8        30.19S
STAPLES        MOCLDY    46  46 100 CALM      30.23S
WHEATON        FAIR      48  45  87 SE8       30.20S
$$
  *****  WEATHER ELSEWHERE ACROSS MINNESOTA  *****

CITY           SKY/WX    TMP DP  RH WIND       PRES   REMARKS
DULUTH         CLOUDY    51  51 100 E9        30.26F
6HR MIN TEMP:  50; 6HR MAX TEMP:  52;

INTRNTL FALLS  FAIR      46  45  96 SE3       30.27S
6HR MIN TEMP:  41; 6HR MAX TEMP:  52;

ELY            FAIR      46  45  93 NE3       30.28F
CLOQUET        CLOUDY    52  48  87 E7        30.26F
BRAINERD       CLOUDY    52  50  93 E5        30.24S
6HR MIN TEMP:  50; 6HR MAX TEMP:  59;

HIBBING        FOG       38  38 100 CALM      30.26F VSB 1/2
6HR MIN TEMP:  38; 6HR MAX TEMP:  55;

ALEXANDRIA     FAIR      52  50  93 E6        30.22F
6HR MIN TEMP:  51; 6HR MAX TEMP:  61;

SAINT CLOUD    CLOUDY    52  52 100 E8        30.22S
6HR MIN TEMP:  52; 6HR MAX TEMP:  61;

MINNEAPOLIS    MOCLDY    60  52  74 NE6       30.20S
6HR MIN TEMP:  59; 6HR MAX TEMP:  67;

$$

  *****  WEATHER ACROSS SOUTH DAKOTA  *****

CITY           SKY/WX    TMP DP  RH WIND       PRES   REMARKS
SIOUX FALLS    FAIR      52  47  83 CALM      30.18S
6HR MIN TEMP:  48; 6HR MAX TEMP:  67;

BROOKINGS      FAIR      51  47  86 SE9       30.18S
WATERTOWN      FAIR      56  46  69 SE7       30.18S
6HR MIN TEMP:  56; 6HR MAX TEMP:  65;

HURON          PTCLDY    52  45  77 SE8       30.14S
6HR MIN TEMP:  52; 6HR MAX TEMP:  67;

SISSETON         N/A     47  43  86 S5        30.18S
ABERDEEN       PTCLDY    53  44  71 SE7       30.13F
6HR MIN TEMP:  53; 6HR MAX TEMP:  69;

MITCHELL       PTCLDY    50  44  80 SE6       30.15S
PIERRE         CLOUDY    60  45  57 SE16      30.05F
6HR MIN TEMP:  60; 6HR MAX TEMP:  69;

MOBRIDGE       PTCLDY    61  45  55 SE15      30.05R
RAPID CITY     CLEAR     55  48  77 SE7       30.03S
6HR MIN TEMP:  55; 6HR MAX TEMP:  68;

$$

  *****  SOME WEATHER IN NEARBY STATES *****

CITY           SKY/WX    TMP DP  RH WIND       PRES   REMARKS
GLASGOW MT     CLEAR     56  51  84 VRB6      29.95R
6HR MIN TEMP:  56; 6HR MAX TEMP:  77;

GREAT FALLS MT MOCLDY    65  42  43 S12       29.95F
6HR MIN TEMP:  63; 6HR MAX TEMP:  75;

CHEYENNE WY    PTCLDY    50  45  83 W6        30.21F
6HR MIN TEMP:  49; 6HR MAX TEMP:  66;

SCOTTSBLUFF NE CLEAR     53  47  79 E7        30.11S
6HR MIN TEMP:  52; 6HR MAX TEMP:  66;

OMAHA NE       MOCLDY    56  51  84 CALM      30.16F
6HR MIN TEMP:  55; 6HR MAX TEMP:  68;

DES MOINES IA  DRIZZLE   60  58  92 NE8       30.14S FOG
6HR MIN TEMP:  60; 6HR MAX TEMP:  64; 6HR PCP: TRACE;

DAVENPORT IA   CLOUDY    60  57  89 N9        30.08F
6HR MIN TEMP:  60; 6HR MAX TEMP:  60; 6HR PCP: TRACE;

CHICAGO IL     CLOUDY    62  57  83 E6        30.04F
6HR MIN TEMP:  62; 6HR MAX TEMP:  63; 6HR PCP: TRACE;

EAU CLAIRE WI  CLOUDY    57  54  89 N5        30.19S
6HR MIN TEMP:  56; 6HR MAX TEMP:  65;

LA CROSSE WI   CLOUDY    63  56  78 E6        30.15F
6HR MIN TEMP:  63; 6HR MAX TEMP:  65;

$$

  *****  SOME NATIONAL WEATHER *****

CITY           SKY/WX    TMP DP  RH WIND       PRES   REMARKS
LA GUARDIA NY  CLOUDY    58  55  90 N14       30.23S
6HR MIN TEMP:  58; 6HR MAX TEMP:  62; 6HR PCP:  0.09;              C1F1C2F2C3F3C4F4C5F5C6F6C7F7C8F8C9F9CaFaCbFbCcFcCdFdCe!


USA.gov is the U.S. government's official web portal to all federal, state and local government web resources and services.